FW6014 Weather Reports


Display with metric or nautical units.
time (UTC)temp
F
wind
direction
speed
MPH
gust
MPH
rain 1hr
in
rain 24hr
in
rain mn
in
humidity
%
barometer
mb
20260506044215 58 277 0.0 0.0 0.00 0.11 0.00 86 1008.6
20260506043715 59 277 0.0 3.0 0.00 0.11 0.00 84 1008.5
20260506043215 59 277 1.0 5.0 0.00 0.11 0.00 83 1008.5
20260506043114 59 277 0.0 5.0 0.00 0.11 0.11 83 1008.4
20260506042718 58 277 1.0 5.0 0.00 0.11 0.00 85 1008.5
20260506042214 56 277 0.0 3.0 0.00 0.11 0.00 91 1008.7
20260506041716 56 277 0.0 0.0 0.00 0.11 0.00 92 1008.6
20260506041524 55 277 0.0 0.0 0.00 0.11 0.11 92 1008.4
20260506041215 56 277 0.0 0.0 0.00 0.11 0.00 92 1008.6
20260506040714 56 277 0.0 0.0 0.00 0.11 0.00 92 1008.6
20260506040215 56 277 0.0 1.0 0.00 0.11 0.00 92 1008.5
20260506035212 56 277 0.0 0.0 0.00 0.11 0.11 92 1008.9
20260506034713 56 277 0.0 1.0 0.00 0.11 0.11 92 1009.0
20260506034501 56 277 0.0 1.0 0.00 0.11 0.11 92 1008.7
20260506034213 56 277 0.0 1.0 0.00 0.11 0.11 91 1008.8
20260506033713 56 277 0.0 1.0 0.00 0.11 0.11 91 1008.6
20260506033113 56 277 0.0 1.0 0.00 0.11 0.11 91 1008.4
20260506032710 57 277 0.0 3.0 0.00 0.11 0.11 90 1008.6
20260506032209 57 277 1.0 3.0 0.00 0.11 0.11 90 1008.5
20260506031710 56 277 0.0 3.0 0.01 0.11 0.11 90 1008.3
20260506031653 56 277 0.0 3.0 0.01 0.11 0.11 91 1008.2
20260506031208 56 277 0.0 1.0 0.01 0.11 0.11 91 1008.3
20260506030207 57 277 0.0 2.0 0.01 0.11 0.11 89 1008.4
20260506030043 56 277 0.0 2.0 0.01 0.11 0.11 90 1008.2
20260506025704 57 277 0.0 5.0 0.01 0.10 0.11 89 1008.4
20260506025202 57 277 0.0 5.0 0.01 0.10 0.11 88 1008.4
20260506024634 57 277 0.0 1.0 0.01 0.11 0.11 88 1008.4
20260506024202 58 277 0.0 6.0 0.01 0.10 0.11 87 1008.5
20260506023701 58 277 0.0 6.0 0.01 0.10 0.11 88 1008.5
20260506023201 58 277 0.0 0.0 0.01 0.10 0.11 90 1008.6
20260506023023 58 277 0.0 0.0 0.01 0.11 0.11 90 1008.4
20260506022702 58 277 0.0 2.0 0.01 0.10 0.11 89 1008.6
20260506022202 59 277 1.0 2.0 0.01 0.10 0.11 88 1008.6
20260506021701 59 277 1.0 3.0 0.00 0.10 0.10 86 1008.5
20260506021616 59 277 1.0 3.0 0.00 0.10 0.10 86 1008.4
20260506020701 58 277 0.0 4.0 0.00 0.10 0.10 88 1008.8
20260506020201 58 277 0.0 1.0 0.00 0.10 0.10 89 1008.8
20260506020004 58 277 0.0 1.0 0.00 0.10 0.10 89 1008.7
20260506015702 58 277 0.0 1.0 0.00 0.10 0.10 89 1008.7
20260506015205 58 277 0.0 1.0 0.00 0.10 0.10 89 1008.7
20260506014700 58 277 0.0 1.0 0.00 0.10 0.10 89 1008.7
20260506014559 58 277 0.0 1.0 0.00 0.10 0.10 89 1008.4
20260506014203 58 277 0.0 1.0 0.00 0.10 0.10 89 1008.4
20260506013700 57 277 0.0 2.0 0.00 0.10 0.10 91 1008.5
20260506013151 56 277 0.0 2.0 0.00 0.10 0.10 93 1008.4
20260506012700 57 277 0.0 0.0 0.00 0.10 0.10 93 1008.5
20260506012158 57 277 0.0 0.0 0.00 0.10 0.10 93 1008.5
20260506011658 57 277 0.0 0.0 0.00 0.10 0.10 93 1008.4
20260506011544 56 277 0.0 0.0 0.00 0.10 0.10 93 1008.2
20260506011159 57 277 0.0 0.0 0.00 0.10 0.10 93 1008.3
20260506010156 57 277 0.0 0.0 0.00 0.10 0.10 93 1008.2
20260506010143 57 277 0.0 0.0 0.00 0.10 0.10 93 1008.0
20260506005655 57 277 0.0 1.0 0.00 0.10 0.10 92 1008.2
20260506005159 57 277 0.0 1.0 0.00 0.10 0.10 92 1008.1
20260506004653 57 277 0.0 1.0 0.00 0.10 0.10 92 1008.0
20260506004536 57 277 0.0 1.0 0.00 0.10 0.10 92 1007.8
20260506004154 58 277 0.0 1.0 0.00 0.10 0.10 91 1007.9
20260506003654 58 277 0.0 1.0 0.00 0.10 0.10 91 1007.8
20260506003154 58 277 0.0 1.0 0.00 0.10 0.10 90 1007.7
20260506003129 57 277 0.0 1.0 0.00 0.10 0.10 90 1007.6
20260506002149 58 277 0.0 0.0 0.00 0.10 0.10 90 1007.7
20260506001650 58 277 0.0 0.0 0.00 0.10 0.10 90 1007.7
20260506001528 58 277 0.0 0.0 0.00 0.10 0.10 90 1007.5
20260506001149 58 277 0.0 1.0 0.00 0.10 0.10 90 1007.6
20260506000650 59 277 0.0 1.0 0.00 0.10 0.10 89 1007.3
20260506000128 59 277 0.0 3.0 0.00 0.10 0.10 87 1007.0
20260505235651 60 277 2.0 5.0 0.01 0.09 0.10 85 1007.1
20260505235151 62 277 2.0 6.0 0.01 0.09 0.10 81 1007.0
20260505234653 61 277 3.0 6.0 0.01 0.09 0.10 80 1007.1
20260505234526 60 277 3.0 6.0 0.01 0.10 0.10 83 1006.8
20260505234145 59 277 2.0 5.0 0.01 0.09 0.10 87 1007.1
20260505233635 58 277 2.0 5.0 0.01 0.09 0.10 88 1007.0
20260505233135 59 277 1.0 3.0 0.02 0.09 0.10 90 1006.9
20260505233126 58 277 1.0 3.0 0.02 0.10 0.10 90 1006.6
20260505232634 59 277 1.0 3.0 0.02 0.09 0.10 89 1006.7
20260505232155 60 277 1.0 4.0 0.02 0.09 0.10 84 1006.8
20260505231630 60 277 2.0 5.0 0.02 0.09 0.10 87 1006.7
20260505231517 59 277 1.0 5.0 0.02 0.10 0.10 86 1006.3
20260505231129 60 277 2.0 5.0 0.02 0.09 0.10 86 1006.5
20260505230630 60 277 2.0 6.0 0.03 0.09 0.10 86 1006.5
20260505230129 60 277 2.0 6.0 0.07 0.09 0.09 86 1007.1
20260505230119 59 277 2.0 6.0 0.06 0.10 0.10 86 1006.9
20260505225629 60 277 2.0 4.0 0.09 0.01 0.09 86 1007.1
20260505225128 60 277 2.0 7.0 0.09 0.01 0.09 88 1007.1
20260505224631 60 277 2.0 7.0 0.09 0.01 0.09 85 1007.0
20260505224510 60 277 1.0 7.0 0.09 0.09 0.09 86 1006.6
20260505224129 60 277 2.0 5.0 0.09 0.01 0.09 88 1007.0
20260505223629 60 277 1.0 4.0 0.09 0.01 0.09 89 1007.3
20260505223129 61 277 1.0 4.0 0.08 0.01 0.08 87 1007.4
20260505223102 60 277 1.0 4.0 0.08 0.08 0.08 87 1007.2
20260505222630 61 277 1.0 4.0 0.08 0.01 0.08 86 1007.1
20260505222129 61 277 1.0 4.0 0.08 0.01 0.08 86 1007.0
20260505221629 61 277 2.0 3.0 0.08 0.01 0.08 85 1006.9
20260505221503 61 277 1.0 3.0 0.08 0.08 0.08 86 1006.7
20260505221129 62 277 1.0 4.0 0.08 0.01 0.08 85 1006.9
20260505220630 63 277 2.0 5.0 0.07 0.01 0.07 81 1006.6
20260505220130 65 277 2.0 5.0 0.03 0.01 0.02 76 1006.5
20260505215629 68 277 3.0 8.0 0.00 0.00 0.00 65 1006.0
20260505215131 70 277 4.0 10.0 0.00 0.00 0.00 56 1005.4
20260505214631 73 277 3.0 10.0 0.00 0.00 0.00 48 1005.4
20260505214512 74 277 4.0 10.0 0.00 0.00 0.00 47 1005.6
20260505214129 77 277 3.0 12.0 0.00 0.00 0.00 41 1005.9
20260505213629 77 277 4.0 12.0 0.00 0.00 0.00 37 1004.0
20260505213106 77 277 4.0 10.0 0.00 0.00 0.00 37 1003.3
20260505212629 78 277 3.0 9.0 0.00 0.00 0.00 37 1003.3
20260505211654 77 277 3.0 10.0 0.00 0.00 0.00 37 1002.9
20260505211628 78 277 3.0 10.0 0.00 0.00 0.00 36 1003.1
20260505211130 78 277 3.0 8.0 0.00 0.00 0.00 37 1003.2
20260505210629 78 277 3.0 11.0 0.00 0.00 0.00 36 1003.1
20260505210129 78 277 4.0 12.0 0.00 0.00 0.00 36 1003.1
20260505210053 78 277 3.0 12.0 0.00 0.00 0.00 37 1002.9
20260505205633 79 277 4.0 12.0 0.00 0.00 0.00 35 1003.1
20260505205129 79 278 5.0 16.0 0.00 0.00 0.00 36 1003.1
20260505204647 79 277 5.0 16.0 0.00 0.00 0.00 35 1002.9
20260505204629 79 277 6.0 18.0 0.00 0.00 0.00 35 1003.1
20260505203638 80 278 4.0 18.0 0.00 0.00 0.00 34 1003.3
20260505203129 80 278 5.0 15.0 0.00 0.00 0.00 35 1003.0
20260505203048 79 278 3.0 15.0 0.00 0.00 0.00 35 1002.8
20260505202630 79 278 5.0 15.0 0.00 0.00 0.00 36 1003.0
20260505202128 79 278 4.0 10.0 0.00 0.00 0.00 35 1003.2
20260505200037 79 278 2.0 13.0 0.00 0.00 0.00 35 1003.2
20260505195630 80 278 5.0 13.0 0.00 0.00 0.00 34 1003.5
20260505195129 80 277 5.0 14.0 0.00 0.00 0.00 34 1003.5
20260505194639 79 277 5.0 14.0 0.00 0.00 0.00 35 1003.3
20260505194631 80 277 6.0 14.0 0.00 0.00 0.00 35 1003.4
20260505194130 79 0.0 0.0 0.00 0.00 0.00 34 1003.6
20260505193630 79 0.0 0.0 0.00 0.00 0.00 35 1003.9
20260505193042 80 276 5.0 14.0 0.00 0.00 0.00 36 1003.6
20260505193016 80 277 5.0 14.0 0.00 0.00 0.00 36 1003.7
20260505192016 80 278 5.0 13.0 0.00 0.00 0.00 34 1003.6
20260505191631 80 278 5.0 13.0 0.00 0.00 0.00 35 1003.8
20260505191517 80 278 6.0 22.0 0.00 0.00 0.00 35 1003.8
20260505191017 80 277 5.0 22.0 0.00 0.00 0.00 36 1003.9
20260505190509 81 276 5.0 14.0 0.00 0.00 0.00 35 1003.9
20260505185507 80 276 6.0 15.0 0.00 0.00 0.00 35 1003.8
20260505185006 80 276 5.0 15.0 0.00 0.00 0.00 35 1003.9
20260505184632 79 276 5.0 19.0 0.00 0.00 0.00 37 1004.1
20260505184505 80 276 5.0 19.0 0.00 0.00 0.00 36 1004.2
20260505184003 80 276 6.0 19.0 0.00 0.00 0.00 36 1004.2
20260505183502 80 274 5.0 15.0 0.00 0.00 0.00 36 1004.1
20260505182501 79 274 5.0 14.0 0.00 0.00 0.00 39 1004.4
20260505182001 79 274 5.0 19.0 0.00 0.00 0.00 37 1004.6
20260505181622 79 274 4.0 19.0 0.00 0.00 0.00 38 1004.5
20260505181500 79 274 6.0 19.0 0.00 0.00 0.00 38 1004.6
20260505181001 79 276 5.0 12.0 0.00 0.00 0.00 39 1004.7
20260505180502 79 276 4.0 12.0 0.00 0.00 0.00 40 1004.8
20260505180031 78 276 4.0 12.0 0.00 0.00 0.00 40 1004.9
20260505180001 78 276 4.0 12.0 0.00 0.00 0.00 41 1004.9
20260505175502 78 276 5.0 15.0 0.00 0.00 0.00 41 1004.8
20260505174620 77 276 6.0 15.0 0.00 0.00 0.00 40 1005.1
20260505174502 78 276 5.0 15.0 0.00 0.00 0.00 40 1004.9
20260505174001 78 276 5.0 15.0 0.00 0.00 0.00 42 1005.0
20260505173501 78 276 4.0 10.0 0.00 0.00 0.00 42 1005.1
20260505173006 77 276 4.0 10.0 0.00 0.01 0.00 42 1005.3
20260505173001 77 276 4.0 10.0 0.00 0.00 0.00 42 1005.2
20260505172001 77 276 5.0 17.0 0.00 0.00 0.00 41 1005.7
20260505171604 76 276 7.0 17.0 0.00 0.01 0.00 41 1005.7
20260505171501 77 276 4.0 14.0 0.00 0.00 0.00 41 1005.9
20260505171001 77 276 4.0 12.0 0.00 0.00 0.00 42 1005.8
20260505170501 76 276 4.0 12.0 0.00 0.00 0.00 42 1005.8
20260505170012 75 276 4.0 18.0 0.00 0.01 0.00 43 1005.9
20260505170002 76 276 4.0 18.0 0.00 0.00 0.00 43 1005.9
20260505165501 75 276 4.0 18.0 0.00 0.00 0.00 46 1006.1
20260505164602 75 276 3.0 11.0 0.00 0.01 0.00 44 1006.0
20260505164501 75 276 4.0 12.0 0.00 0.00 0.00 42 1006.1
20260505163502 74 277 4.0 12.0 0.00 0.01 0.00 45 1006.1
20260505162001 73 277 4.0 10.0 0.00 0.01 0.00 47 1006.5
20260505161602 72 277 4.0 10.0 0.00 0.02 0.00 45 1006.6
20260505161501 73 277 4.0 10.0 0.00 0.01 0.00 45 1006.7
20260505161001 73 277 4.0 10.0 0.00 0.02 0.00 45 1006.6
20260505153156 72 277 2.0 8.0 0.00 0.02 0.00 45 1007.1
20260505152953 73 277 4.0 10.0 0.00 0.02 0.00 45 1007.1
20260505151953 72 277 5.0 13.0 0.00 0.02 0.00 45 1007.2
20260505151556 71 277 4.0 10.0 0.00 0.02 0.00 45 1007.4
20260505151454 72 277 4.0 10.0 0.00 0.02 0.00 44 1007.3
20260505150954 72 277 4.0 11.0 0.00 0.02 0.00 46 1007.3
20260505150454 72 277 4.0 11.0 0.00 0.02 0.00 45 1007.2
20260505150158 71 277 2.0 10.0 0.00 0.02 0.00 47 1007.4
20260505140440 68 277 3.0 9.0 0.00 0.02 0.00 49 1007.4
20260505140142 67 277 3.0 9.0 0.00 0.02 0.00 48 1007.5
20260505130129 63 276 0.0 8.0 0.00 0.02 0.00 55 1008.4
20260505124929 62 276 2.0 9.0 0.00 0.02 0.00 56 1008.2
20260505124532 61 276 2.0 9.0 0.00 0.02 0.00 57 1008.6
20260505124430 62 276 3.0 9.0 0.00 0.02 0.00 56 1008.3
20260505123930 62 276 1.0 7.0 0.00 0.02 0.00 58 1008.3
20260505123429 61 276 1.0 4.0 0.00 0.02 0.00 59 1008.1
20260505123134 60 276 0.0 4.0 0.00 0.02 0.00 59 1008.4
20260505122928 60 276 1.0 4.0 0.00 0.02 0.00 61 1008.1
20260505121930 58 276 1.0 4.0 0.00 0.02 0.00 61 1008.1
20260505121653 57 276 1.0 6.0 0.00 0.02 0.00 61 1008.5
20260505120928 58 276 2.0 6.0 0.00 0.02 0.00 62 1008.2
20260505120128 57 276 2.0 5.0 0.00 0.02 0.00 62 1008.6
20260505115932 57 276 1.0 7.0 0.00 0.02 0.00 62 1008.3
20260505115430 57 276 1.0 7.0 0.00 0.02 0.00 62 1008.3
20260505114929 57 276 2.0 6.0 0.00 0.02 0.00 63 1008.3
20260505114513 56 276 1.0 6.0 0.00 0.02 0.00 64 1008.8
20260505114431 56 276 2.0 9.0 0.00 0.02 0.00 64 1008.4
20260505113930 56 276 2.0 9.0 0.00 0.02 0.00 64 1008.3
20260505113428 56 276 2.0 6.0 0.00 0.02 0.00 65 1008.4
20260505113105 55 276 1.0 6.0 0.00 0.02 0.00 65 1008.8
20260505112929 55 276 2.0 6.0 0.00 0.02 0.00 66 1008.4
20260505112429 55 276 1.0 6.0 0.00 0.02 0.00 67 1008.4
20260505111929 54 276 1.0 6.0 0.00 0.02 0.00 67 1008.3
20260505111505 53 276 0.0 6.0 0.00 0.02 0.00 69 1008.7
20260505111430 53 276 1.0 6.0 0.00 0.02 0.00 69 1008.3
20260505110929 52 276 1.0 4.0 0.00 0.02 0.00 71 1008.4
20260505110429 52 276 0.0 2.0 0.00 0.02 0.00 72 1008.5
20260505101929 48 276 0.0 0.0 0.00 0.02 0.00 80 1008.3
20260505101503 47 276 0.0 0.0 0.00 0.02 0.00 80 1008.7
20260505101428 48 276 0.0 0.0 0.00 0.02 0.00 79 1008.3
20260505100930 48 276 0.0 0.0 0.00 0.02 0.00 79 1008.2
20260505100430 48 276 0.0 0.0 0.00 0.02 0.00 80 1008.2
20260505100110 47 276 0.0 0.0 0.00 0.02 0.00 80 1008.6
20260505095928 48 276 0.0 0.0 0.00 0.02 0.00 80 1008.2
20260505095429 48 276 0.0 0.0 0.00 0.02 0.00 79 1008.1
20260505094928 48 276 0.0 0.0 0.00 0.02 0.00 78 1008.2
20260505094659 48 276 0.0 0.0 0.00 0.02 0.00 79 1008.6
20260505094428 48 276 0.0 0.0 0.00 0.02 0.00 78 1008.1
20260505093928 48 276 0.0 0.0 0.00 0.02 0.00 78 1008.2
20260505093429 49 276 0.0 0.0 0.00 0.02 0.00 77 1008.2
20260505093158 49 276 0.0 0.0 0.00 0.02 0.00 76 1008.5
20260505092429 49 276 0.0 0.0 0.00 0.02 0.00 76 1007.9
20260505091931 49 276 0.0 0.0 0.00 0.02 0.00 75 1008.1
20260505091650 49 276 0.0 0.0 0.00 0.02 0.00 75 1008.5
20260505091430 50 276 0.0 0.0 0.00 0.02 0.00 74 1008.1
20260505090931 50 276 0.0 0.0 0.00 0.02 0.00 75 1008.1
20260505090429 50 276 0.0 3.0 0.00 0.02 0.00 74 1008.1
20260505090047 50 276 0.0 3.0 0.00 0.02 0.00 74 1008.6
20260505085930 51 276 1.0 3.0 0.00 0.02 0.00 73 1008.2
20260505085428 51 276 1.0 3.0 0.00 0.02 0.00 72 1008.0
20260505084929 51 276 0.0 3.0 0.00 0.02 0.00 72 1008.1
20260505084630 51 276 0.0 3.0 0.00 0.02 0.00 71 1008.6
20260505084430 51 276 0.0 3.0 0.00 0.02 0.00 72 1008.1
20260505083930 51 276 1.0 3.0 0.00 0.02 0.00 71 1008.1
20260505083429 51 276 1.0 3.0 0.00 0.02 0.00 71 1008.2
20260505083153 50 276 1.0 3.0 0.00 0.02 0.00 72 1008.7
20260505082430 50 276 0.0 2.0 0.00 0.02 0.00 73 1008.2
20260505081613 49 276 0.0 1.0 0.00 0.02 0.00 75 1009.0
20260505081429 49 276 0.0 1.0 0.00 0.02 0.00 75 1008.5
20260505080929 49 276 0.0 1.0 0.00 0.02 0.00 75 1008.5
20260505080430 49 276 0.0 0.0 0.00 0.02 0.00 75 1008.4
20260505080005 49 276 0.0 0.0 0.00 0.02 0.00 74 1009.0
20260505075931 50 276 0.0 0.0 0.00 0.02 0.00 74 1008.4
20260505075430 50 276 0.0 0.0 0.00 0.02 0.00 73 1008.5
20260505074930 50 276 0.0 0.0 0.00 0.02 0.00 73 1008.5
20260505074603 50 276 0.0 0.0 0.00 0.02 0.00 72 1008.9
20260505074430 51 276 0.0 0.0 0.00 0.02 0.00 71 1008.4
20260505073929 51 276 0.0 2.0 0.00 0.02 0.00 69 1008.3
20260505073430 52 276 1.0 4.0 0.00 0.02 0.00 68 1008.3
20260505073002 52 276 1.0 4.0 0.00 0.02 0.00 68 1008.9
20260505072929 52 276 1.0 4.0 0.00 0.02 0.00 68 1008.3
20260505072430 52 276 0.0 3.0 0.00 0.02 0.00 68 1008.4
20260505071930 52 276 0.0 5.0 0.00 0.02 0.00 68 1008.4
20260505071606 52 276 0.0 5.0 0.00 0.02 0.00 68 1009.0
20260505071429 52 276 0.0 5.0 0.00 0.02 0.00 68 1008.4
20260505070430 52 276 1.0 5.0 0.00 0.02 0.00 69 1008.4
20260505070149 51 276 0.0 5.0 0.00 0.02 0.00 69 1009.0
20260505064929 51 276 1.0 3.0 0.00 0.02 0.00 69 1008.5
20260505064703 50 276 0.0 2.0 0.00 0.02 0.00 69 1009.2
20260505063930 51 276 0.0 2.0 0.00 0.02 0.00 68 1008.6
20260505063430 51 276 0.0 2.0 0.00 0.02 0.00 67 1008.5
20260505063005 51 276 0.0 3.0 0.00 0.02 0.02 67 1009.1
20260505062930 52 276 0.0 3.0 0.00 0.02 0.00 66 1008.5
20260505061929 53 276 0.0 3.0 0.00 0.02 0.00 65 1008.4
20260505061605 52 276 0.0 4.0 0.00 0.02 0.02 65 1009.1
20260505061428 53 276 1.0 4.0 0.00 0.02 0.00 64 1008.4
20260505060929 53 276 1.0 4.0 0.00 0.02 0.00 65 1008.5
20260505060429 52 276 0.0 3.0 0.00 0.02 0.00 66 1008.4
20260505060149 52 276 0.0 3.0 0.00 0.02 0.02 66 1009.1
20260505055428 52 276 0.0 3.0 0.00 0.02 0.00 65 1008.5
20260505054927 53 276 1.0 4.0 0.00 0.02 0.00 64 1008.4
20260505054656 53 276 0.0 4.0 0.00 0.02 0.02 63 1009.1
20260505053925 53 276 1.0 4.0 0.00 0.02 0.00 63 1008.4
20260505053425 53 276 1.0 4.0 0.00 0.02 0.00 64 1008.4
20260505053156 53 276 1.0 4.0 0.00 0.02 0.02 63 1009.0
20260505052924 53 276 1.0 4.0 0.00 0.02 0.00 64 1008.4
20260505052426 53 276 2.0 5.0 0.00 0.02 0.00 66 1008.3
20260505051925 51 276 1.0 5.0 0.00 0.02 0.00 69 1008.4
20260505051650 49 276 1.0 3.0 0.00 0.02 0.02 73 1008.9
20260505050922 48 276 0.0 3.0 0.00 0.02 0.00 76 1008.4
20260505050153 46 276 0.0 0.0 0.00 0.02 0.02 79 1009.0